Other Public Products
Issued by NWS Charleston, SC

Current Version | Previous Version | Text Only | Print | Product List | Glossary Off
Versions: 1 2 3 4 5 6 7 8 9 10 11 12 13 14 15 16 17 18 19 20 21 22 23 24 25 26 27 28 29 30 31 32 33 34 35 36 37 38 39 40 41 42 43 44 45 46 47 48 49 50

644
FPUS82 KCHS 221226
OPUCHS

TEST...KCHS/KSAV Gateway Observations...TEST
National Weather Service Charleston SC
800 AM EDT FRI SEP 22 2017

NOTE: "fair" indicates few or no clouds below 12,000 feet with no
significant weather and/or obstructions to visibility.

SCZ050-WAZ558-NCZ071-TXZ119-213-PAZ071-DCZ001-FLZ074-172-MI076-
NYZ176-178-MAZ016-IL014-TNZ027-NJZ106-GAZ044-MD014-221300-

...Gateway Observations for Charleston International...

CITY           SKY/WX    TMP DP  RH WIND       PRES   REMARKS
Chas Airport   PTCLDY    71  70  96 CALM      30.04S
6HR MIN TEMP:  67; 6HR MAX TEMP:  71;

Seattle        CLOUDY    52  48  86 SE6       30.02S
6HR MIN TEMP:  52; 6HR MAX TEMP:  55;

Charlotte      PTCLDY    70  67  90 NE5       30.10R
6HR MIN TEMP:  66; 6HR MAX TEMP:  73;

Dallas DFW     CLOUDY    78  72  81 S10       29.94R
6HR MIN TEMP:  75; 6HR MAX TEMP:  79;

Dallas Love    PTCLDY    77  71  82 S8        29.96R
6HR MIN TEMP:  76; 6HR MAX TEMP:  79;

Philladelphia  PTSUNNY   69  59  70 N8        30.05R
6HR MIN TEMP:  69; 6HR MAX TEMP:  73;

Wash National  CLOUDY    72  66  81 N7        30.07R
6HR MIN TEMP:  70; 6HR MAX TEMP:  74;

Baltimore      CLOUDY    68  66  93 CALM      30.06R
6HR MIN TEMP:  66; 6HR MAX TEMP:  70;

Miami          MOSUNNY   82  79  90 CALM      29.89R HX  92
6HR MIN TEMP:  79; 6HR MAX TEMP:  82;

Detroit        CLOUDY    70  65  84 NE3       30.13R HAZE
6HR MIN TEMP:  68; 6HR MAX TEMP:  72;

Newark         PTSUNNY   68  48  48 N13G24    30.01S
6HR MIN TEMP:  66; 6HR MAX TEMP:  71;

Laguardia      PTSUNNY   68  51  54 N13G23    30.01R
6HR MIN TEMP:  68; 6HR MAX TEMP:  71;

J F K          PTSUNNY   68  48  48 N21G30    30.00S
6HR MIN TEMP:  67; 6HR MAX TEMP:  71;

Boston Logan   CLOUDY    58  55  90 N22G29    30.01S
6HR MIN TEMP:  57; 6HR MAX TEMP:  61; 6HR PCP:  0.12;

Ft. Lauderdale MOSUNNY   81  79  94 NW3       29.88R HX  90
6HR MIN TEMP:  79; 6HR MAX TEMP:  82; 6HR PCP:  0.01;

Chicago O`Hare PTCLDY    73  67  81 S5        30.06R
6HR MIN TEMP:  71; 6HR MAX TEMP:  80;

Chicago Midway PTCLDY    76  67  73 S6        30.07R
6HR MIN TEMP:  75; 6HR MAX TEMP:  83;

Houston Bush   PTCLDY    73  71  93 CALM      29.95R
6HR MIN TEMP:  71; 6HR MAX TEMP:  76;

Houston Hobby  PTCLDY    76  72  87 CALM      29.94R
6HR MIN TEMP:  75; 6HR MAX TEMP:  78;

Nashville      CLEAR     67  66  97 CALM      30.08R FOG
6HR MIN TEMP:  67; 6HR MAX TEMP:  72;

Atlanta        PTCLDY    71  66  84 E9        30.08R
6HR MIN TEMP:  69; 6HR MAX TEMP:  73;


$$

GAZ044-118-TXZ119-213-NCZ071-DCZ001-MDZ014-506-PAZ021-071-NJZ106-
NYZ176-178-MAZ106-OHZ011-021-055-MIZ076-KYZ091-ILZ014-INZ047-
MNZ060-ONZ431-221300-

...Gateway Observations for Savannah International...

CITY           SKY/WX    TMP DP  RH WIND       PRES   REMARKS
Savannah Arpt  PTCLDY    70  70 100 CALM      30.04R FOG
6HR MIN TEMP:  69; 6HR MAX TEMP:  73;

Atlanta        PTCLDY    71  66  84 E9        30.08R
6HR MIN TEMP:  69; 6HR MAX TEMP:  73;

Charlotte      PTCLDY    70  67  90 NE5       30.10R
6HR MIN TEMP:  66; 6HR MAX TEMP:  73;

Dallas DFW     CLOUDY    78  72  81 S10       29.94R
6HR MIN TEMP:  75; 6HR MAX TEMP:  79;

Houston Bush   PTCLDY    73  71  93 CALM      29.95R
6HR MIN TEMP:  71; 6HR MAX TEMP:  76;

Wash National  CLOUDY    72  66  81 N7        30.07R
6HR MIN TEMP:  70; 6HR MAX TEMP:  74;

Wash Dulles    CLOUDY    68  64  87 N5        30.08R
6HR MIN TEMP:  64; 6HR MAX TEMP:  69;

Baltimore      CLOUDY    68  66  93 CALM      30.06R
6HR MIN TEMP:  66; 6HR MAX TEMP:  70;

Philadelphia   PTSUNNY   69  59  70 N8        30.05R
6HR MIN TEMP:  69; 6HR MAX TEMP:  73;

Newark         PTSUNNY   68  48  48 N13G24    30.01S
6HR MIN TEMP:  66; 6HR MAX TEMP:  71;

Laguardia      PTSUNNY   68  51  54 N13G23    30.01R
6HR MIN TEMP:  68; 6HR MAX TEMP:  71;

J F K          PTSUNNY   68  48  48 N21G30    30.00S
6HR MIN TEMP:  67; 6HR MAX TEMP:  71;

Boston         CLOUDY    58  55  90 N22G29    30.01S
6HR MIN TEMP:  57; 6HR MAX TEMP:  61; 6HR PCP:  0.12;

Pittsburg      CLOUDY    61  59  93 CALM      30.15R
6HR MIN TEMP:  59; 6HR MAX TEMP:  66;

Akron          CLOUDY    65  60  84 NE5       30.15R
6HR MIN TEMP:  64; 6HR MAX TEMP:  70;

Cleveland      PTCLDY    66  61  84 CALM      30.15R
6HR MIN TEMP:  64; 6HR MAX TEMP:  72;

Cincinnati     CLEAR     67  67 100 CALM      30.12R
6HR MIN TEMP:  65; 6HR MAX TEMP:  74;

Columbus       PTCLDY    64  64 100 CALM      30.13S
Detroit        CLOUDY    70  65  84 NE3       30.13R HAZE
6HR MIN TEMP:  68; 6HR MAX TEMP:  72;

Chicago O`Hare PTCLDY    73  67  81 S5        30.06R
6HR MIN TEMP:  71; 6HR MAX TEMP:  80;

Minneapolis    MOCLDY    75  71  87 S9        29.84R
6HR MIN TEMP:  73; 6HR MAX TEMP:  77;

Indianapolis   PTCLDY    72  69  90 CALM      30.11R
6HR MIN TEMP:  71; 6HR MAX TEMP:  76;

Toronto Canada PTCLDY    64  61  88 CALM      30.16R

$$




USA.gov is the U.S. government's official web portal to all federal, state and local government web resources and services.